NOZ628 ENGM-ENBR

Flight info

Callsign NOZ628
Flight time 0h 44m
Altitude 28000
Route ATLAP DCT AGEKU DCT PESUR
Aircraft B738/M-SDE2E3FGHIRWXY/LB1

Departure

Time 2026-05-06 20:23
Airport Oslo-Gardermoen International Airport (ENGM)

Arrival

Time 2026-05-06 21:08
Airport Bergen Airport, Flesland (ENBR)
Time Latitude Longitude Altitude Speed Heading
2026-05-06 19:53 60.19554 11.09502 684 ft 0 kts 196°
2026-05-06 20:05 60.19554 11.09503 684 ft 1 kts 196°
2026-05-06 20:05 60.19568 11.09511 679 ft 3 kts 196°
2026-05-06 20:05 60.19588 11.09522 677 ft 3 kts 196°
2026-05-06 20:05 60.19604 11.09531 676 ft 1 kts 196°
2026-05-06 20:06 60.19605 11.09532 676 ft 0 kts 196°
2026-05-06 20:10 60.19598 11.09531 684 ft 2 kts 184°
2026-05-06 20:11 60.19591 11.09545 679 ft 2 kts 107°
2026-05-06 20:11 60.19600 11.09564 679 ft 3 kts 33°
2026-05-06 20:11 60.19675 11.09606 681 ft 19 kts 15°
2026-05-06 20:11 60.19735 11.09736 683 ft 12 kts 72°
2026-05-06 20:12 60.19805 11.09822 684 ft 12 kts 17°
2026-05-06 20:12 60.19891 11.09872 682 ft 15 kts 17°
2026-05-06 20:12 60.19976 11.09982 684 ft 16 kts 89°
2026-05-06 20:12 60.19947 11.10191 683 ft 15 kts 106°
2026-05-06 20:13 60.19918 11.10395 682 ft 17 kts 105°
2026-05-06 20:13 60.19899 11.10524 683 ft 1 kts 106°
2026-05-06 20:13 60.19877 11.10679 681 ft 21 kts 105°
2026-05-06 20:13 60.19838 11.10967 678 ft 21 kts 106°
2026-05-06 20:14 60.19796 11.11244 681 ft 20 kts 106°
2026-05-06 20:14 60.19756 11.11432 682 ft 12 kts 122°
2026-05-06 20:14 60.19687 11.11508 680 ft 12 kts 192°
2026-05-06 20:14 60.19617 11.11416 680 ft 13 kts 215°
2026-05-06 20:15 60.19496 11.11325 681 ft 24 kts 196°
2026-05-06 20:15 60.19304 11.11214 678 ft 31 kts 196°
2026-05-06 20:15 60.19098 11.11097 682 ft 31 kts 195°
2026-05-06 20:15 60.18897 11.10983 682 ft 29 kts 196°
2026-05-06 20:16 60.18708 11.10873 682 ft 27 kts 196°
2026-05-06 20:16 60.18531 11.10768 681 ft 26 kts 196°
2026-05-06 20:16 60.18366 11.10672 680 ft 24 kts 195°
2026-05-06 20:16 60.18206 11.10580 679 ft 25 kts 197°
2026-05-06 20:17 60.18046 11.10488 678 ft 23 kts 196°
2026-05-06 20:17 60.17893 11.10400 677 ft 22 kts 196°
2026-05-06 20:17 60.17749 11.10315 673 ft 20 kts 196°
2026-05-06 20:17 60.17646 11.10350 674 ft 15 kts 112°
2026-05-06 20:18 60.17624 11.10514 675 ft 0 kts 105°
2026-05-06 20:21 60.17619 11.10552 675 ft 7 kts 105°
2026-05-06 20:21 60.17607 11.10657 678 ft 8 kts 95°
2026-05-06 20:22 60.17609 11.10769 679 ft 8 kts 85°
2026-05-06 20:22 60.17648 11.10831 679 ft 8 kts
2026-05-06 20:22 60.17702 11.10852 679 ft 8 kts 15°
2026-05-06 20:22 60.17771 11.10891 679 ft 19 kts 16°
2026-05-06 20:23 60.18142 11.11105 681 ft 92 kts 16°
2026-05-06 20:23 60.18970 11.11581 684 ft 153 kts 16°
2026-05-06 20:23 60.20099 11.12249 1069 ft 176 kts 15°
2026-05-06 20:23 60.21254 11.13203 1934 ft 180 kts 37°
2026-05-06 20:24 60.21973 11.15417 2485 ft 206 kts 76°
2026-05-06 20:24 60.21986 11.18373 2919 ft 223 kts 93°
2026-05-06 20:24 60.21985 11.21484 3730 ft 217 kts 85°
2026-05-06 20:24 60.22113 11.24501 4496 ft 222 kts 84°
2026-05-06 20:25 60.22299 11.27734 4955 ft 242 kts 88°
2026-05-06 20:25 60.21980 11.30957 6014 ft 229 kts 121°
2026-05-06 20:25 60.20862 11.33123 6881 ft 228 kts 155°
2026-05-06 20:25 60.19289 11.33816 7455 ft 233 kts 190°
2026-05-06 20:26 60.18300 11.33200 8213 ft 220 kts 211°
2026-05-06 20:26 60.17227 11.31125 9133 ft 216 kts 242°
2026-05-06 20:26 60.16788 11.28258 9928 ft 218 kts 262°
2026-05-06 20:26 60.16698 11.25226 10693 ft 217 kts 267°
2026-05-06 20:27 60.16676 11.22215 11521 ft 214 kts 267°
2026-05-06 20:27 60.16663 11.19237 12344 ft 212 kts 267°
2026-05-06 20:27 60.16646 11.16234 12976 ft 221 kts 267°
2026-05-06 20:27 60.16623 11.12968 13197 ft 246 kts 267°
2026-05-06 20:28 60.16593 11.09364 13427 ft 270 kts 267°
2026-05-06 20:28 60.16557 11.05430 13637 ft 293 kts 267°
2026-05-06 20:28 60.16515 11.01187 13918 ft 312 kts 268°
2026-05-06 20:28 60.16469 10.96795 14544 ft 317 kts 267°
2026-05-06 20:29 60.16421 10.92362 15335 ft 317 kts 267°
2026-05-06 20:29 60.16370 10.87929 16156 ft 318 kts 267°
2026-05-06 20:29 60.16317 10.83478 16899 ft 320 kts 267°
2026-05-06 20:29 60.16260 10.78999 17659 ft 322 kts 267°
2026-05-06 20:30 60.16202 10.74493 18419 ft 323 kts 267°
2026-05-06 20:30 60.16078 10.65410 19688 ft 327 kts 267°
2026-05-06 20:30 60.16013 10.60835 20325 ft 329 kts 266°
2026-05-06 20:31 60.15946 10.56228 20962 ft 331 kts 266°
2026-05-06 20:31 60.15878 10.51662 21589 ft 333 kts 266°
2026-05-06 20:31 60.15807 10.47009 22210 ft 334 kts 266°
2026-05-06 20:31 60.15734 10.42336 22846 ft 336 kts 266°
2026-05-06 20:32 60.15659 10.37632 23486 ft 337 kts 266°
2026-05-06 20:32 60.15582 10.32925 24004 ft 339 kts 266°
2026-05-06 20:32 60.15503 10.28186 24534 ft 340 kts 266°
2026-05-06 20:32 60.15423 10.23466 25159 ft 337 kts 266°
2026-05-06 20:33 60.15343 10.18801 25852 ft 333 kts 265°
2026-05-06 20:33 60.15262 10.14170 26481 ft 330 kts 265°
2026-05-06 20:33 60.15178 10.09563 27051 ft 330 kts 265°
2026-05-06 20:33 60.15093 10.04951 27534 ft 331 kts 265°
2026-05-06 20:34 60.15006 10.00318 27927 ft 335 kts 265°
2026-05-06 20:34 60.14916 9.95606 27953 ft 340 kts 265°
2026-05-06 20:34 60.14825 9.90867 27938 ft 338 kts 265°
2026-05-06 20:34 60.14733 9.86190 27941 ft 333 kts 265°
2026-05-06 20:35 60.14642 9.81555 27959 ft 332 kts 265°
2026-05-06 20:35 60.14702 9.76904 27948 ft 335 kts 270°
2026-05-06 20:35 60.14885 9.72247 27960 ft 335 kts 271°
2026-05-06 20:35 60.15086 9.67591 27955 ft 335 kts 271°
2026-05-06 20:36 60.15289 9.62939 27958 ft 334 kts 271°
2026-05-06 20:36 60.15488 9.58296 27955 ft 334 kts 271°
2026-05-06 20:36 60.15682 9.53659 27965 ft 334 kts 271°
2026-05-06 20:36 60.15872 9.49013 27977 ft 334 kts 271°
2026-05-06 20:37 60.16057 9.44423 27971 ft 335 kts 271°
2026-05-06 20:37 60.16241 9.39761 27957 ft 335 kts 271°
2026-05-06 20:37 60.16424 9.35108 27967 ft 334 kts 271°
2026-05-06 20:37 60.16604 9.30459 27978 ft 334 kts 270°
2026-05-06 20:38 60.16782 9.25809 27978 ft 334 kts 270°
2026-05-06 20:38 60.16958 9.21155 27982 ft 334 kts 270°
2026-05-06 20:38 60.17133 9.16501 27987 ft 335 kts 270°
2026-05-06 20:38 60.17306 9.11836 27980 ft 335 kts 270°
2026-05-06 20:39 60.17478 9.07164 27981 ft 335 kts 270°
2026-05-06 20:39 60.17649 9.02499 27991 ft 335 kts 270°
2026-05-06 20:39 60.17818 8.97824 27981 ft 335 kts 270°
2026-05-06 20:39 60.17985 8.93166 27979 ft 334 kts 270°
2026-05-06 20:40 60.18150 8.88516 27986 ft 334 kts 271°
2026-05-06 20:40 60.18311 8.83861 27996 ft 334 kts 270°
2026-05-06 20:40 60.18473 8.79212 28003 ft 334 kts 270°
2026-05-06 20:40 60.18633 8.74556 27993 ft 334 kts 270°
2026-05-06 20:41 60.18792 8.69906 28001 ft 334 kts 270°
2026-05-06 20:41 60.19011 8.65236 27994 ft 337 kts 276°
2026-05-06 20:41 60.19485 8.60615 28006 ft 339 kts 277°
2026-05-06 20:42 60.20501 8.51356 28007 ft 339 kts 278°
2026-05-06 20:42 60.21509 8.42089 28016 ft 339 kts 277°
2026-05-06 20:43 60.22498 8.32823 28010 ft 339 kts 277°
2026-05-06 20:43 60.23467 8.23641 28016 ft 326 kts 277°
2026-05-06 20:44 60.24380 8.14913 28018 ft 315 kts 277°
2026-05-06 20:44 60.25271 8.06277 28014 ft 315 kts 277°
2026-05-06 20:45 60.26126 7.97982 28010 ft 292 kts 277°
2026-05-06 20:45 60.26528 7.94072 28005 ft 278 kts 277°
2026-05-06 20:45 60.26911 7.90338 28001 ft 266 kts 276°
2026-05-06 20:45 60.27274 7.86787 28006 ft 253 kts 276°
2026-05-06 20:46 60.27618 7.83404 28013 ft 240 kts 276°
2026-05-06 20:46 60.27947 7.80136 28026 ft 239 kts 276°
2026-05-06 20:46 60.28281 7.76772 28049 ft 250 kts 276°
2026-05-06 20:46 60.28625 7.73295 27963 ft 254 kts 276°
2026-05-06 20:47 60.28972 7.69804 27579 ft 255 kts 277°
2026-05-06 20:47 60.29324 7.66271 27088 ft 259 kts 277°
2026-05-06 20:47 60.29692 7.62534 25926 ft 281 kts 277°
2026-05-06 20:47 60.30086 7.58512 24982 ft 299 kts 278°
2026-05-06 20:48 60.30493 7.54389 24544 ft 299 kts 278°
2026-05-06 20:48 60.30898 7.50314 24242 ft 294 kts 278°
2026-05-06 20:48 60.31295 7.46300 23899 ft 291 kts 278°
2026-05-06 20:48 60.31682 7.42366 23534 ft 289 kts 278°
2026-05-06 20:49 60.32076 7.38350 23090 ft 287 kts 278°
2026-05-06 20:49 60.32454 7.34463 22656 ft 286 kts 278°
2026-05-06 20:49 60.32836 7.30535 22239 ft 284 kts 278°
2026-05-06 20:49 60.33214 7.26629 21811 ft 283 kts 278°
2026-05-06 20:50 60.33590 7.22730 21428 ft 282 kts 278°
2026-05-06 20:50 60.33962 7.18857 21033 ft 280 kts 278°
2026-05-06 20:50 60.34331 7.15002 20669 ft 279 kts 278°
2026-05-06 20:50 60.34698 7.11164 20268 ft 278 kts 278°
2026-05-06 20:51 60.35061 7.07345 19870 ft 277 kts 278°
2026-05-06 20:51 60.35419 7.03566 19493 ft 276 kts 279°
2026-05-06 20:51 60.35777 6.99781 19096 ft 274 kts 279°
2026-05-06 20:51 60.36134 6.95994 18679 ft 274 kts 279°
2026-05-06 20:52 60.36490 6.92203 18340 ft 273 kts 279°
2026-05-06 20:52 60.36841 6.88448 17950 ft 272 kts 279°
2026-05-06 20:52 60.37191 6.84695 17532 ft 273 kts 279°
2026-05-06 20:52 60.37542 6.80921 17098 ft 273 kts 279°
2026-05-06 20:53 60.37892 6.77146 16650 ft 274 kts 279°
2026-05-06 20:53 60.38242 6.73349 16238 ft 276 kts 279°
2026-05-06 20:53 60.38593 6.69543 15856 ft 275 kts 279°
2026-05-06 20:53 60.38943 6.65725 15405 ft 277 kts 279°
2026-05-06 20:54 60.39294 6.61892 15017 ft 276 kts 279°
2026-05-06 20:54 60.39639 6.58103 14679 ft 273 kts 279°
2026-05-06 20:54 60.39982 6.54333 14358 ft 273 kts 279°
2026-05-06 20:54 60.40325 6.50555 14023 ft 273 kts 279°
2026-05-06 20:55 60.40666 6.46770 13654 ft 274 kts 279°
2026-05-06 20:55 60.41006 6.42994 13297 ft 273 kts 279°
2026-05-06 20:55 60.41344 6.39226 12934 ft 272 kts 279°
2026-05-06 20:55 60.41679 6.35473 12596 ft 270 kts 279°
2026-05-06 20:56 60.42009 6.31756 12290 ft 267 kts 279°
2026-05-06 20:56 60.42338 6.28061 11964 ft 267 kts 279°
2026-05-06 20:56 60.42664 6.24371 11647 ft 266 kts 280°
2026-05-06 20:56 60.42990 6.20693 11294 ft 265 kts 280°
2026-05-06 20:57 60.43312 6.17034 11012 ft 264 kts 279°
2026-05-06 20:57 60.43632 6.13375 10683 ft 264 kts 279°
2026-05-06 20:57 60.43947 6.09764 10360 ft 263 kts 279°
2026-05-06 20:57 60.44264 6.06127 10226 ft 255 kts 280°
2026-05-06 20:58 60.44567 6.02637 10098 ft 248 kts 279°
2026-05-06 20:58 60.44856 5.99272 9889 ft 246 kts 280°
2026-05-06 20:58 60.45150 5.95867 9595 ft 245 kts 279°
2026-05-06 20:58 60.45441 5.92484 9318 ft 244 kts 279°
2026-05-06 20:59 60.45732 5.89096 9024 ft 243 kts 279°
2026-05-06 20:59 60.46020 5.85724 8729 ft 242 kts 279°
2026-05-06 20:59 60.46309 5.82332 8463 ft 241 kts 279°
2026-05-06 20:59 60.46589 5.79035 8171 ft 241 kts 279°
2026-05-06 21:00 60.46874 5.75668 7838 ft 243 kts 279°
2026-05-06 21:00 60.47159 5.72288 7550 ft 244 kts 279°
2026-05-06 21:00 60.47443 5.68902 7255 ft 244 kts 279°
2026-05-06 21:00 60.47727 5.65522 6965 ft 243 kts 279°
2026-05-06 21:01 60.48009 5.62139 6679 ft 243 kts 279°
2026-05-06 21:01 60.48291 5.58744 6359 ft 244 kts 279°
2026-05-06 21:01 60.48574 5.55341 6017 ft 246 kts 279°
2026-05-06 21:01 60.48858 5.51916 5720 ft 246 kts 279°
2026-05-06 21:02 60.49081 5.48462 5369 ft 249 kts 268°
2026-05-06 21:02 60.49011 5.44934 5135 ft 252 kts 270°
2026-05-06 21:02 60.49038 5.41395 4866 ft 254 kts 271°
2026-05-06 21:02 60.49084 5.37771 4624 ft 250 kts 271°
2026-05-06 21:03 60.49131 5.34315 4548 ft 241 kts 271°
2026-05-06 21:03 60.49179 5.31027 4458 ft 232 kts 271°
2026-05-06 21:03 60.49292 5.27826 4367 ft 224 kts 284°
2026-05-06 21:03 60.49544 5.24685 3909 ft 229 kts 258°
2026-05-06 21:04 60.48944 5.21841 3964 ft 215 kts 243°
2026-05-06 21:04 60.48324 5.19132 3987 ft 210 kts 248°
2026-05-06 21:04 60.47549 5.16714 3966 ft 203 kts 215°
2026-05-06 21:04 60.46256 5.15987 3984 ft 192 kts 177°
2026-05-06 21:05 60.44985 5.16410 3951 ft 181 kts 172°
2026-05-06 21:05 60.43728 5.16872 3614 ft 189 kts 171°
2026-05-06 21:05 60.42414 5.17351 3209 ft 194 kts 171°
2026-05-06 21:05 60.41075 5.17834 2791 ft 197 kts 171°
2026-05-06 21:06 60.39719 5.18300 2412 ft 198 kts 171°
2026-05-06 21:06 60.38357 5.18766 1928 ft 199 kts 171°
2026-05-06 21:06 60.37016 5.19222 1625 ft 188 kts 171°
2026-05-06 21:06 60.35790 5.19637 1588 ft 174 kts 171°
2026-05-06 21:07 60.34602 5.20038 1451 ft 175 kts 171°
2026-05-06 21:07 60.33330 5.20467 736 ft 181 kts 170°
2026-05-06 21:07 60.32166 5.20882 630 ft 162 kts 169°
2026-05-06 21:07 60.31102 5.21245 333 ft 148 kts 172°
2026-05-06 21:08 60.30137 5.21552 161 ft 132 kts 171°
2026-05-06 21:08 60.29366 5.21808 153 ft 76 kts 171°
2026-05-06 21:08 60.29024 5.21923 160 ft 36 kts 171°
2026-05-06 21:08 60.28852 5.21980 161 ft 24 kts 171°
2026-05-06 21:09 60.28698 5.22037 161 ft 20 kts 161°
2026-05-06 21:09 60.28669 5.22231 162 ft 15 kts 81°
2026-05-06 21:09 60.28687 5.22424 164 ft 13 kts 71°
2026-05-06 21:09 60.28711 5.22566 166 ft 7 kts 77°
2026-05-06 21:10 60.28718 5.22637 168 ft 3 kts 80°
2026-05-06 21:10 60.28722 5.22698 170 ft 8 kts 84°
2026-05-06 21:10 60.28735 5.22853 172 ft 11 kts 81°
2026-05-06 21:10 60.28739 5.22900 172 ft 0 kts 80°
2026-05-06 21:11 60.28740 5.22905 172 ft 0 kts 80°
2026-05-06 21:11 60.28740 5.22906 172 ft 0 kts 80°